Flag for Germany Weather past 2 weeks in Wipperfürth, North Rhine-Westphalia, Germany

Now
45 °F

Broken clouds.


Feels Like: 36 °F
Forecast: 35 / 41 °F
Wind: 21 mph from West

Location: Koeln / Bonn

Current Time: Apr 1, 2015 at 8:18:36 PM

Latest Report: Apr 1, 2015 at 7:50 PM


Visibility: N/A

Pressure: 30.09 "Hg

Humidity: 53%

Dew point: 28 °F

Location of WipperfürthLocation

Historic Weather in Wipperfürth — Graph

°F

Wipperfürth temperature yesterday

Maximum temperature yesterday: 54 °F (at 4:20 AM)
Minimum temperature yesterday: 41 °F (at 12:50 AM)
Average temperature yesterday: 48 °F

Past Weeks' High & Low Weather Summary

 TemperatureHumidityPressure
High63 °F (Mar 18, 2:50 PM)100% (Mar 18, 5:50 AM)30.36 "Hg (Mar 18, 5:50 AM)
Low28 °F (Mar 23, 5:20 AM)36% (Mar 17, 6:20 PM)29.33 "Hg (Mar 31, 5:20 AM)
Average45 °F75%29.95 "Hg
* Reported Mar 17 6:20 PM — Apr 1 7:20 PM, Wipperfürth, Weather by CustomWeather, © 2015

Note: Actual official high and low records may vary slightly from our data, if they occured in-between our weather recording intervals... More about our weather records

Advertising

Wipperfürth weather history for previous 24 hours

 ConditionsComfort  
Time TempWeatherWind HumidityBarometerVisibility
7:20 PM
Wed, Apr 1
46 °FBroken clouds.16 mph50%30.09 "HgN/A
6:50 PM43 °FScattered showers. Broken clouds.13 mph71%30.07 "HgN/A
6:20 PM43 °FSprinkles. Broken clouds.24 mph66%30.07 "HgN/A
5:50 PM46 °FSprinkles. Broken clouds.28 mph50%30.07 "HgN/A
5:20 PM46 °FSprinkles. Scattered clouds.29 mph50%30.07 "HgN/A
4:50 PM46 °FScattered showers. Scattered clouds.30 mph50%30.07 "HgN/A
4:20 PM45 °FScattered showers. Scattered clouds.29 mph57%30.07 "HgN/A
3:50 PM45 °FSprinkles. Scattered clouds.25 mph61%30.07 "HgN/A
3:20 PM46 °FSprinkles. Scattered clouds.28 mph57%30.07 "HgN/A
2:50 PM45 °FScattered showers. Scattered clouds.29 mph61%30.07 "HgN/A
2:20 PM46 °FScattered showers. Scattered clouds.23 mph62%30.04 "HgN/A
1:50 PM45 °FScattered showers. Scattered clouds.20 mph66%30.07 "HgN/A
1:20 PM43 °FScattered showers. Scattered clouds.9 mph81%30.07 "HgN/A
12:50 PM39 °FPartly sunny.10 mph93%30.07 "HgN/A
12:20 PM37 °FRain showers. Partly sunny.13 mph87%30.07 "Hg5 mi
11:50 AM39 °FSprinkles. Partly sunny.17 mph81%30.07 "Hg6 mi
11:20 AM41 °FSprinkles. Partly sunny.17 mph70%30.07 "HgN/A
10:50 AM41 °FSprinkles. Partly sunny.16 mph76%30.07 "HgN/A
10:20 AM41 °FSprinkles. Broken clouds.22 mph70%30.04 "HgN/A
9:50 AM41 °FSprinkles. Broken clouds.15 mph70%30.04 "HgN/A
9:20 AM41 °FScattered showers. Partly sunny.18 mph70%30.01 "HgN/A
8:50 AM41 °FScattered showers. Partly sunny.21 mph70%30.01 "HgN/A
8:20 AM41 °FScattered showers. Partly sunny.17 mph70%29.98 "HgN/A
7:50 AM39 °FPassing clouds.23 mph70%29.98 "HgN/A
7:20 AM39 °FPassing clouds.18 mph75%29.95 "HgN/A
6:50 AM39 °FSprinkles. Partly cloudy.16 mph70%29.95 "HgN/A
6:20 AM41 °FPassing clouds.17 mph61%29.95 "HgN/A
5:50 AM41 °FSprinkles. Passing clouds.15 mph66%29.92 "HgN/A
5:20 AM41 °FSprinkles. Passing clouds.17 mph66%29.92 "HgN/A
4:50 AM41 °FPassing clouds.22 mph66%29.92 "HgN/A
4:20 AM41 °FPartly cloudy.16 mph66%29.89 "HgN/A
3:50 AM41 °FPassing clouds.15 mph66%29.89 "HgN/A
3:20 AM41 °FSprinkles. Passing clouds.18 mph70%29.89 "HgN/A
2:50 AM41 °FPassing clouds.22 mph66%29.89 "HgN/A
2:20 AM41 °FPartly cloudy.18 mph70%29.86 "HgN/A
1:50 AM41 °FPassing clouds.18 mph76%29.86 "HgN/A
1:20 AM41 °FPassing clouds.17 mph76%29.86 "HgN/A
12:50 AM41 °FPassing clouds.16 mph76%29.86 "HgN/A
12:20 AM41 °FPassing clouds.12 mph70%29.86 "HgN/A
11:50 PM
Tue, Mar 31
43 °FPassing clouds.21 mph71%29.83 "HgN/A
11:20 PM41 °FPartly cloudy.20 mph76%29.83 "HgN/A
10:50 PM43 °FPassing clouds.24 mph71%29.83 "HgN/A
10:20 PM41 °FPassing clouds.15 mph81%29.83 "HgN/A
9:50 PM43 °FClear.20 mph76%29.80 "Hg10 mi
9:20 PM43 °FPassing clouds.22 mph76%29.83 "HgN/A
8:50 PM41 °FScattered showers. Scattered clouds.25 mph81%29.80 "HgN/A
8:20 PM43 °FThundershowers. Partly sunny.14 mph76%29.77 "HgN/A
Weather by CustomWeather, © 2015

See weather overviewHow to use our weather pages